This is the latest recevied weather packets stored in our database for station/object KE1THD. If no packets are shown the sender has not sent any weather packets the latest 1 day(s).
| Time | Temp. | Humidity | Pressure | Rain* | Wind** | Luminosity | Snow |
|---|---|---|---|---|---|---|---|
| 1778053861 | 6.11° C | 63% | 1012.6 hPa | 0 mm | 0 m/s | 0 W/m² | - |
| 1778053559 | 6.67° C | 63% | 1012.6 hPa | 0 mm | 0.45 m/s, 225° | 0 W/m² | - |
| 1778053255 | 6.67° C | 64% | 1012.7 hPa | 0 mm | 0.45 m/s, 260° | 0 W/m² | - |
| 1778052953 | 6.67° C | 61% | 1012.7 hPa | 0 mm | 0 m/s | 0 W/m² | - |
| 1778052650 | 6.67° C | 60% | 1012.8 hPa | 0 mm | 0 m/s | 0 W/m² | - |
| 1778052347 | 6.67° C | 60% | 1012.7 hPa | 0 mm | 0 m/s | 0 W/m² | - |
| 1778052045 | 6.67° C | 60% | 1012.6 hPa | 0 mm | 0 m/s | 0 W/m² | - |
| 1778051743 | 6.67° C | 61% | 1012.6 hPa | 0 mm | 0.45 m/s, 224° | 0 W/m² | - |
| 1778051440 | 6.67° C | 60% | 1012.6 hPa | 0 mm | 0.45 m/s, 283° | 0 W/m² | - |
| 1778051137 | 6.67° C | 60% | 1012.4 hPa | 0 mm | 0.45 m/s, 264° | 0 W/m² | - |
| 1778050834 | 6.67° C | 60% | 1012.3 hPa | 0 mm | 0.45 m/s, 266° | 0 W/m² | - |
| 1778050532 | 6.67° C | 60% | 1012.3 hPa | 0 mm | 0.89 m/s, 318° | 0 W/m² | - |
| 1778050228 | 7.22° C | 60% | 1012.3 hPa | 0 mm | 0.89 m/s, 255° | 0 W/m² | - |
| 1778049925 | 7.22° C | 59% | 1012.1 hPa | 0 mm | 0.89 m/s, 268° | 0 W/m² | - |
| 1778049620 | 7.22° C | 59% | 1012.4 hPa | 0 mm | 0.45 m/s, 240° | 0 W/m² | - |
| 1778049319 | 7.22° C | 59% | 1012.2 hPa | 0 mm | 0.45 m/s, 335° | 0 W/m² | - |
| 1778049016 | 7.22° C | 58% | 1012.3 hPa | 0 mm | 1.34 m/s, 316° | 0 W/m² | - |
| 1778048714 | 7.22° C | 58% | 1012.3 hPa | 0 mm | 0.45 m/s, 35° | 0 W/m² | - |
| 1778048411 | 7.78° C | 57% | 1012.4 hPa | 0 mm | 1.34 m/s, 308° | 0 W/m² | - |
| 1778048107 | 7.78° C | 57% | 1012.1 hPa | 0 mm | 1.34 m/s, 359° | 0 W/m² | - |
| 1778047805 | 7.78° C | 57% | 1012.3 hPa | 0 mm | 1.34 m/s, 12° | 0 W/m² | - |
| 1778047503 | 7.78° C | 57% | 1012 hPa | 0 mm | 1.34 m/s, 359° | 0 W/m² | - |
| 1778047199 | 7.78° C | 57% | 1012.1 hPa | 0 mm | 1.34 m/s, 18° | 0 W/m² | - |
| 1778046897 | 7.78° C | 57% | 1011.9 hPa | 0 mm | 1.34 m/s, 24° | 0 W/m² | - |
| 1778046593 | 8.33° C | 56% | 1012.3 hPa | 0 mm | 1.34 m/s, 23° | 0 W/m² | - |
* Rain latest hour (hover to see other rain measurements)
** Current wind speed in m/s (hover to see current wind gust speed)